Year,Month,Day,Hour,Minute,Value (Times are PST for temperature in C)
2006,09,26,00,00,14.70
2006,09,26,00,01,14.70
2006,09,26,00,02,14.60
2006,09,26,00,03,14.60
2006,09,26,00,04,14.60
2006,09,26,00,05,14.60
2006,09,26,00,06,14.60
2006,09,26,00,07,14.50
2006,09,26,00,08,14.50
2006,09,26,00,09,14.50
2006,09,26,00,10,14.50
2006,09,26,00,11,14.50
2006,09,26,00,12,14.50
2006,09,26,00,13,14.50
2006,09,26,00,14,14.50
2006,09,26,00,15,14.40
2006,09,26,00,16,14.40
2006,09,26,00,17,14.40
2006,09,26,00,18,14.40
2006,09,26,00,19,14.40
2006,09,26,00,20,14.40
2006,09,26,00,21,14.40
2006,09,26,00,22,14.40
2006,09,26,00,23,14.30
2006,09,26,00,24,14.30
2006,09,26,00,25,14.30
2006,09,26,00,26,14.30
2006,09,26,00,27,14.30
2006,09,26,00,28,14.30
2006,09,26,00,29,14.20
2006,09,26,00,30,14.20
2006,09,26,00,31,14.20
2006,09,26,00,32,14.20
2006,09,26,00,33,14.20
2006,09,26,00,34,14.20
2006,09,26,00,35,14.20
2006,09,26,00,36,14.20
2006,09,26,00,37,14.20
2006,09,26,00,38,14.20
2006,09,26,00,39,14.10
2006,09,26,00,40,14.10
2006,09,26,00,41,14.00
2006,09,26,00,42,14.00
2006,09,26,00,43,14.00
2006,09,26,00,44,14.00
2006,09,26,00,45,13.90
2006,09,26,00,46,13.90
2006,09,26,00,47,13.90
2006,09,26,00,48,13.90
2006,09,26,00,49,13.90
2006,09,26,00,50,13.90
2006,09,26,00,51,13.90
2006,09,26,00,52,13.90
2006,09,26,00,53,13.90
2006,09,26,00,54,13.90
2006,09,26,00,55,13.90
2006,09,26,00,56,13.90
2006,09,26,00,57,13.90
2006,09,26,00,58,14.00
2006,09,26,00,59,14.00
2006,09,26,01,00,14.00
2006,09,26,01,01,13.90
2006,09,26,01,02,13.90
2006,09,26,01,03,13.90
2006,09,26,01,04,13.90
2006,09,26,01,05,13.90
2006,09,26,01,06,13.90
2006,09,26,01,07,13.90
2006,09,26,01,08,13.90
2006,09,26,01,09,13.90
2006,09,26,01,10,13.90
2006,09,26,01,11,13.90
2006,09,26,01,12,13.80
2006,09,26,01,13,13.80
2006,09,26,01,14,13.80
2006,09,26,01,15,13.70
2006,09,26,01,16,13.70
2006,09,26,01,17,13.70
2006,09,26,01,18,13.70
2006,09,26,01,19,13.70
2006,09,26,01,20,13.70
2006,09,26,01,21,13.70
2006,09,26,01,22,13.70
2006,09,26,01,23,13.60
2006,09,26,01,24,13.60
2006,09,26,01,25,13.60
2006,09,26,01,26,13.60
2006,09,26,01,27,13.50
2006,09,26,01,28,13.50
2006,09,26,01,29,13.50
2006,09,26,01,30,13.50
2006,09,26,01,31,13.50
2006,09,26,01,32,13.50
2006,09,26,01,33,13.50
2006,09,26,01,34,13.40
2006,09,26,01,35,13.40
2006,09,26,01,36,13.40
2006,09,26,01,37,13.40
2006,09,26,01,38,13.40
2006,09,26,01,39,13.40
2006,09,26,01,40,13.30
2006,09,26,01,41,13.30
2006,09,26,01,42,13.30
2006,09,26,01,43,13.30
2006,09,26,01,44,13.30
2006,09,26,01,45,13.30
2006,09,26,01,46,13.30
2006,09,26,01,47,13.40
2006,09,26,01,48,13.40
2006,09,26,01,49,13.40
2006,09,26,01,50,13.40
2006,09,26,01,51,13.40
2006,09,26,01,52,13.40
2006,09,26,01,53,13.40
2006,09,26,01,54,13.40
2006,09,26,01,55,13.40
2006,09,26,01,56,13.40
2006,09,26,01,57,13.40
2006,09,26,01,58,13.30
2006,09,26,01,59,13.30
2006,09,26,02,00,13.30
2006,09,26,02,01,13.30
2006,09,26,02,02,13.40
2006,09,26,02,03,13.40
2006,09,26,02,04,13.40
2006,09,26,02,05,13.40
2006,09,26,02,06,13.50
2006,09,26,02,07,13.50
2006,09,26,02,08,13.50
2006,09,26,02,09,13.50
2006,09,26,02,10,13.50
2006,09,26,02,11,13.50
2006,09,26,02,12,13.50
2006,09,26,02,13,13.50
2006,09,26,02,14,13.40
2006,09,26,02,15,13.40
2006,09,26,02,16,13.40
2006,09,26,02,17,13.40
2006,09,26,02,18,13.40
2006,09,26,02,19,13.40
2006,09,26,02,20,13.40
2006,09,26,02,21,13.40
2006,09,26,02,22,13.30
2006,09,26,02,23,13.30
2006,09,26,02,24,13.30
2006,09,26,02,25,13.30
2006,09,26,02,26,13.30
2006,09,26,02,27,13.30
2006,09,26,02,28,13.30
2006,09,26,02,29,13.30
2006,09,26,02,30,13.30
2006,09,26,02,31,13.20
2006,09,26,02,32,13.20
2006,09,26,02,33,13.20
2006,09,26,02,34,13.20
2006,09,26,02,35,13.20
2006,09,26,02,36,13.20
2006,09,26,02,37,13.20
2006,09,26,02,38,13.20
2006,09,26,02,39,13.20
2006,09,26,02,40,13.20
2006,09,26,02,41,13.20
2006,09,26,02,42,13.10
2006,09,26,02,43,13.10
2006,09,26,02,44,13.10
2006,09,26,02,45,13.00
2006,09,26,02,46,13.00
2006,09,26,02,47,13.00
2006,09,26,02,48,12.90
2006,09,26,02,49,12.90
2006,09,26,02,50,12.90
2006,09,26,02,51,12.80
2006,09,26,02,52,12.80
2006,09,26,02,53,12.80
2006,09,26,02,54,12.80
2006,09,26,02,55,12.80
2006,09,26,02,56,12.80
2006,09,26,02,57,12.80
2006,09,26,02,58,12.80
2006,09,26,02,59,12.80
2006,09,26,03,00,12.80
2006,09,26,03,01,12.80
2006,09,26,03,02,12.80
2006,09,26,03,03,12.80
2006,09,26,03,04,12.80
2006,09,26,03,05,12.80
2006,09,26,03,06,12.80
2006,09,26,03,07,12.80
2006,09,26,03,08,12.80
2006,09,26,03,09,12.80
2006,09,26,03,10,12.80
2006,09,26,03,11,12.80
2006,09,26,03,12,12.80
2006,09,26,03,13,12.80
2006,09,26,03,14,12.80
2006,09,26,03,15,12.80
2006,09,26,03,16,12.80
2006,09,26,03,17,12.80
2006,09,26,03,18,12.80
2006,09,26,03,19,12.90
2006,09,26,03,20,12.90
2006,09,26,03,21,13.00
2006,09,26,03,22,13.00
2006,09,26,03,23,13.00
2006,09,26,03,24,13.00
2006,09,26,03,25,13.10
2006,09,26,03,26,13.10
2006,09,26,03,27,13.10
2006,09,26,03,28,13.10
2006,09,26,03,29,13.00
2006,09,26,03,30,13.00
2006,09,26,03,31,13.00
2006,09,26,03,32,13.00
2006,09,26,03,33,13.00
2006,09,26,03,34,12.90
2006,09,26,03,35,12.90
2006,09,26,03,36,12.90
2006,09,26,03,37,12.90
2006,09,26,03,38,12.90
2006,09,26,03,39,12.90
2006,09,26,03,40,12.90
2006,09,26,03,41,12.90
2006,09,26,03,42,12.90
2006,09,26,03,43,12.80
2006,09,26,03,44,12.80
2006,09,26,03,45,12.80
2006,09,26,03,46,12.70
2006,09,26,03,47,12.70
2006,09,26,03,48,12.60
2006,09,26,03,49,12.50
2006,09,26,03,50,12.50
2006,09,26,03,51,12.40
2006,09,26,03,52,12.40
2006,09,26,03,53,12.30
2006,09,26,03,54,12.30
2006,09,26,03,55,12.30
2006,09,26,03,56,12.30
2006,09,26,03,57,12.20
2006,09,26,03,58,12.20
2006,09,26,03,59,12.20
2006,09,26,04,00,12.10
2006,09,26,04,01,12.10
2006,09,26,04,02,12.10
2006,09,26,04,03,12.10
2006,09,26,04,04,12.00
2006,09,26,04,05,12.00
2006,09,26,04,06,12.00
2006,09,26,04,07,11.90
2006,09,26,04,08,11.90
2006,09,26,04,09,12.00
2006,09,26,04,10,12.00
2006,09,26,04,11,12.00
2006,09,26,04,12,12.00
2006,09,26,04,13,12.00
2006,09,26,04,14,12.00
2006,09,26,04,15,12.00
2006,09,26,04,16,12.00
2006,09,26,04,17,12.00
2006,09,26,04,18,12.00
2006,09,26,04,19,12.00
2006,09,26,04,20,12.00
2006,09,26,04,21,12.00
2006,09,26,04,22,11.90
2006,09,26,04,23,11.90
2006,09,26,04,24,11.80
2006,09,26,04,25,11.80
2006,09,26,04,26,11.80
2006,09,26,04,27,11.80
2006,09,26,04,28,11.70
2006,09,26,04,29,11.70
2006,09,26,04,30,11.70
2006,09,26,04,31,11.60
2006,09,26,04,32,11.60
2006,09,26,04,33,11.60
2006,09,26,04,34,11.60
2006,09,26,04,35,11.60
2006,09,26,04,36,11.60
2006,09,26,04,37,11.50
2006,09,26,04,38,11.40
2006,09,26,04,39,11.40
2006,09,26,04,40,11.40
2006,09,26,04,41,11.40
2006,09,26,04,42,11.40
2006,09,26,04,43,11.40
2006,09,26,04,44,11.40
2006,09,26,04,45,11.40
2006,09,26,04,46,11.40
2006,09,26,04,47,11.40
2006,09,26,04,48,11.40
2006,09,26,04,49,11.40
2006,09,26,04,50,11.40
2006,09,26,04,51,11.30
2006,09,26,04,52,11.30
2006,09,26,04,53,11.30
2006,09,26,04,54,11.30
2006,09,26,04,55,11.30
2006,09,26,04,56,11.30
2006,09,26,04,57,11.30
2006,09,26,04,58,11.30
2006,09,26,04,59,11.30
2006,09,26,05,00,11.30
2006,09,26,05,01,11.30
2006,09,26,05,02,11.20
2006,09,26,05,03,11.20
2006,09,26,05,04,11.20
2006,09,26,05,05,11.20
2006,09,26,05,06,11.20
2006,09,26,05,07,11.20
2006,09,26,05,08,11.20
2006,09,26,05,09,11.10
2006,09,26,05,10,11.10
2006,09,26,05,11,11.10
2006,09,26,05,12,11.10
2006,09,26,05,13,11.10
2006,09,26,05,14,11.10
2006,09,26,05,15,11.10
2006,09,26,05,16,11.10
2006,09,26,05,17,11.10
2006,09,26,05,18,11.10
2006,09,26,05,19,11.10
2006,09,26,05,20,11.10
2006,09,26,05,21,11.10
2006,09,26,05,22,11.10
2006,09,26,05,23,11.10
2006,09,26,05,24,11.10
2006,09,26,05,25,11.10
2006,09,26,05,26,11.10
2006,09,26,05,27,11.10
2006,09,26,05,28,11.10
2006,09,26,05,29,11.10
2006,09,26,05,30,11.00
2006,09,26,05,31,10.90
2006,09,26,05,32,10.90
2006,09,26,05,33,10.90
2006,09,26,05,34,10.90
2006,09,26,05,35,10.90
2006,09,26,05,36,10.90
2006,09,26,05,37,10.90
2006,09,26,05,38,10.90
2006,09,26,05,39,10.90
2006,09,26,05,40,10.90
2006,09,26,05,41,11.00
2006,09,26,05,42,11.10
2006,09,26,05,43,11.10
2006,09,26,05,44,11.10
2006,09,26,05,45,11.20
2006,09,26,05,46,11.20
2006,09,26,05,47,11.20
2006,09,26,05,48,11.30
2006,09,26,05,49,11.30
2006,09,26,05,50,11.30
2006,09,26,05,51,11.30
2006,09,26,05,52,11.30
2006,09,26,05,53,11.40
2006,09,26,05,54,11.40
2006,09,26,05,55,11.40
2006,09,26,05,56,11.40
2006,09,26,05,57,11.40
2006,09,26,05,58,11.40
2006,09,26,05,59,11.40
2006,09,26,06,00,11.50
2006,09,26,06,01,11.60
2006,09,26,06,02,11.60
2006,09,26,06,03,11.60
2006,09,26,06,04,11.60
2006,09,26,06,05,11.60
2006,09,26,06,06,11.60
2006,09,26,06,07,11.70
2006,09,26,06,08,11.70
2006,09,26,06,09,11.70
2006,09,26,06,10,11.70
2006,09,26,06,11,11.80
2006,09,26,06,12,11.80
2006,09,26,06,13,11.80
2006,09,26,06,14,11.80
2006,09,26,06,15,11.80
2006,09,26,06,16,11.80
2006,09,26,06,17,11.80
2006,09,26,06,18,11.70
2006,09,26,06,19,11.80
2006,09,26,06,20,11.80
2006,09,26,06,21,11.80
2006,09,26,06,22,11.80
2006,09,26,06,23,12.00
2006,09,26,06,24,12.10
2006,09,26,06,25,12.20
2006,09,26,06,26,12.20
2006,09,26,06,27,12.30
2006,09,26,06,28,12.30
2006,09,26,06,29,12.30
2006,09,26,06,30,12.30
2006,09,26,06,31,12.30
2006,09,26,06,32,12.30
2006,09,26,06,33,12.30
2006,09,26,06,34,12.30
2006,09,26,06,35,12.20
2006,09,26,06,36,12.20
2006,09,26,06,37,12.10
2006,09,26,06,38,12.10
2006,09,26,06,39,12.00
2006,09,26,06,40,12.00
2006,09,26,06,41,11.90
2006,09,26,06,42,11.80
2006,09,26,06,43,11.80
2006,09,26,06,44,11.80
2006,09,26,06,45,11.80
2006,09,26,06,46,11.80
2006,09,26,06,47,11.90
2006,09,26,06,48,11.90
2006,09,26,06,49,11.90
2006,09,26,06,50,12.00
2006,09,26,06,51,12.00
2006,09,26,06,52,12.10
2006,09,26,06,53,12.20
2006,09,26,06,54,12.20
2006,09,26,06,55,12.30
2006,09,26,06,56,12.30
2006,09,26,06,57,12.30
2006,09,26,06,58,12.30
2006,09,26,06,59,12.30
2006,09,26,07,00,12.30
2006,09,26,07,01,12.30
2006,09,26,07,02,12.30
2006,09,26,07,03,12.30
2006,09,26,07,04,12.30
2006,09,26,07,05,12.30
2006,09,26,07,06,12.30
2006,09,26,07,07,12.30
2006,09,26,07,08,12.30
2006,09,26,07,09,12.30
2006,09,26,07,10,12.30
2006,09,26,07,11,12.40
2006,09,26,07,12,12.40
2006,09,26,07,13,12.40
2006,09,26,07,14,12.40
2006,09,26,07,15,12.40
2006,09,26,07,16,12.40
2006,09,26,07,17,12.40
2006,09,26,07,18,12.50
2006,09,26,07,19,12.50
2006,09,26,07,20,12.50
2006,09,26,07,21,12.50
2006,09,26,07,22,12.50
2006,09,26,07,23,12.50
2006,09,26,07,24,12.50
2006,09,26,07,25,12.60
2006,09,26,07,26,12.60
2006,09,26,07,27,12.70
2006,09,26,07,28,12.70
2006,09,26,07,29,12.80
2006,09,26,07,30,12.80
2006,09,26,07,31,12.80
2006,09,26,07,32,12.80
2006,09,26,07,33,12.80
2006,09,26,07,34,12.90
2006,09,26,07,35,12.90
2006,09,26,07,36,12.90
2006,09,26,07,37,13.00
2006,09,26,07,38,13.10
2006,09,26,07,39,13.10
2006,09,26,07,40,13.20
2006,09,26,07,41,13.30
2006,09,26,07,42,13.30
2006,09,26,07,43,13.40
2006,09,26,07,44,13.40
2006,09,26,07,45,13.50
2006,09,26,07,46,13.50
2006,09,26,07,47,13.50
2006,09,26,07,48,13.60
2006,09,26,07,49,13.60
2006,09,26,07,50,13.70
2006,09,26,07,51,13.70
2006,09,26,07,52,13.80
2006,09,26,07,53,13.90
2006,09,26,07,54,13.90
2006,09,26,07,55,14.00
2006,09,26,07,56,14.20
2006,09,26,07,57,14.20
2006,09,26,07,58,14.30
2006,09,26,07,59,14.30
2006,09,26,08,00,14.40
2006,09,26,08,01,14.50
2006,09,26,08,02,14.50
2006,09,26,08,03,14.50
2006,09,26,08,04,14.50
2006,09,26,08,05,14.50
2006,09,26,08,06,14.50
2006,09,26,08,07,14.50
2006,09,26,08,08,14.50
2006,09,26,08,09,14.50
2006,09,26,08,10,14.50
2006,09,26,08,11,14.50
2006,09,26,08,12,14.60
2006,09,26,08,13,14.60
2006,09,26,08,14,14.60
2006,09,26,08,15,14.70
2006,09,26,08,16,14.70
2006,09,26,08,17,14.80
2006,09,26,08,18,14.80
2006,09,26,08,19,14.80
2006,09,26,08,20,14.80
2006,09,26,08,21,14.80
2006,09,26,08,22,14.90
2006,09,26,08,23,15.00
2006,09,26,08,24,15.00
2006,09,26,08,25,15.10
2006,09,26,08,26,15.10
2006,09,26,08,27,15.10
2006,09,26,08,28,15.20
2006,09,26,08,29,15.20
2006,09,26,08,30,15.10
2006,09,26,08,31,15.10
2006,09,26,08,32,15.10
2006,09,26,08,33,15.10
2006,09,26,08,34,15.10
2006,09,26,08,35,15.00
2006,09,26,08,36,15.00
2006,09,26,08,37,15.00
2006,09,26,08,38,15.00
2006,09,26,08,39,15.00
2006,09,26,08,40,15.00
2006,09,26,08,41,15.00
2006,09,26,08,42,15.00
2006,09,26,08,43,15.10
2006,09,26,08,44,15.10
2006,09,26,08,45,15.10
2006,09,26,08,46,15.10
2006,09,26,08,47,15.10
2006,09,26,08,48,15.20
2006,09,26,08,49,15.20
2006,09,26,08,50,15.30
2006,09,26,08,51,15.30
2006,09,26,08,52,15.40
2006,09,26,08,53,15.40
2006,09,26,08,54,15.50
2006,09,26,08,55,15.60
2006,09,26,08,56,15.60
2006,09,26,08,57,15.70
2006,09,26,08,58,15.80
2006,09,26,08,59,15.80
2006,09,26,09,00,15.80
2006,09,26,09,01,15.80
2006,09,26,09,02,15.90
2006,09,26,09,03,15.90
2006,09,26,09,04,15.90
2006,09,26,09,05,16.00
2006,09,26,09,06,16.10
2006,09,26,09,07,16.10
2006,09,26,09,08,16.10
2006,09,26,09,09,16.10
2006,09,26,09,10,16.10
2006,09,26,09,11,16.10
2006,09,26,09,12,16.10
2006,09,26,09,13,16.20
2006,09,26,09,14,16.20
2006,09,26,09,15,16.20
2006,09,26,09,16,16.20
2006,09,26,09,17,16.20
2006,09,26,09,18,16.20
2006,09,26,09,19,16.20
2006,09,26,09,20,16.20
2006,09,26,09,21,16.10
2006,09,26,09,22,16.10
2006,09,26,09,23,16.10
2006,09,26,09,24,16.10
2006,09,26,09,25,16.10
2006,09,26,09,26,16.10
2006,09,26,09,27,16.10
2006,09,26,09,28,16.10
2006,09,26,09,29,16.10
2006,09,26,09,30,15.90
2006,09,26,09,31,15.90
2006,09,26,09,32,15.90
2006,09,26,09,33,15.90
2006,09,26,09,34,15.80
2006,09,26,09,35,15.80
2006,09,26,09,36,15.80
2006,09,26,09,37,15.80
2006,09,26,09,38,15.90
2006,09,26,09,39,15.90
2006,09,26,09,40,15.90
2006,09,26,09,41,16.00
2006,09,26,09,42,16.10
2006,09,26,09,43,16.10
2006,09,26,09,44,16.10
2006,09,26,09,45,16.10
2006,09,26,09,46,16.20
2006,09,26,09,47,16.20
2006,09,26,09,48,16.30
2006,09,26,09,49,16.40
2006,09,26,09,50,16.40
2006,09,26,09,51,16.40
2006,09,26,09,52,16.40
2006,09,26,09,53,16.50
2006,09,26,09,54,16.60
2006,09,26,09,55,16.60
2006,09,26,09,56,16.50
2006,09,26,09,57,16.40
2006,09,26,09,58,16.40
2006,09,26,09,59,16.40
2006,09,26,10,00,16.40
2006,09,26,10,01,16.30
2006,09,26,10,02,16.30
2006,09,26,10,03,16.40
2006,09,26,10,04,16.40
2006,09,26,10,05,16.40
2006,09,26,10,06,16.40
2006,09,26,10,07,16.40
2006,09,26,10,08,16.40
2006,09,26,10,09,16.40
2006,09,26,10,10,16.40
2006,09,26,10,11,16.40
2006,09,26,10,12,16.40
2006,09,26,10,13,16.50
2006,09,26,10,14,16.60
2006,09,26,10,15,16.60
2006,09,26,10,16,16.70
2006,09,26,10,17,16.70
2006,09,26,10,18,16.70
2006,09,26,10,19,16.70
2006,09,26,10,20,16.70
2006,09,26,10,21,16.70
2006,09,26,10,22,16.70
2006,09,26,10,23,16.70
2006,09,26,10,24,16.70
2006,09,26,10,25,16.70
2006,09,26,10,26,16.70
2006,09,26,10,27,16.70
2006,09,26,10,28,16.70
2006,09,26,10,29,16.80
2006,09,26,10,30,16.80
2006,09,26,10,31,16.90
2006,09,26,10,32,17.00
2006,09,26,10,33,17.00
2006,09,26,10,34,17.10
2006,09,26,10,35,17.20
2006,09,26,10,36,17.30
2006,09,26,10,37,17.30
2006,09,26,10,38,17.30
2006,09,26,10,39,17.30
2006,09,26,10,40,17.30
2006,09,26,10,41,17.30
2006,09,26,10,42,17.30
2006,09,26,10,43,17.30
2006,09,26,10,44,17.40
2006,09,26,10,45,17.40
2006,09,26,10,46,17.40
2006,09,26,10,47,17.40
2006,09,26,10,48,17.40
2006,09,26,10,49,17.40
2006,09,26,10,50,17.40
2006,09,26,10,51,17.30
2006,09,26,10,52,17.30
2006,09,26,10,53,17.30
2006,09,26,10,54,17.30
2006,09,26,10,55,17.40
2006,09,26,10,56,17.40
2006,09,26,10,57,17.50
2006,09,26,10,58,17.50
2006,09,26,10,59,17.60
2006,09,26,11,00,17.70
2006,09,26,11,01,17.70
2006,09,26,11,02,17.80
2006,09,26,11,03,17.80
2006,09,26,11,04,17.80
2006,09,26,11,05,17.80
2006,09,26,11,06,17.80
2006,09,26,11,07,17.70
2006,09,26,11,08,17.60
2006,09,26,11,09,17.60
2006,09,26,11,10,17.60
2006,09,26,11,11,17.50
2006,09,26,11,12,17.40
2006,09,26,11,13,17.30
2006,09,26,11,14,17.30
2006,09,26,11,15,17.30
2006,09,26,11,16,17.30
2006,09,26,11,17,17.40
2006,09,26,11,18,17.40
2006,09,26,11,19,17.50
2006,09,26,11,20,17.50
2006,09,26,11,21,17.60
2006,09,26,11,22,17.60
2006,09,26,11,23,17.50
2006,09,26,11,24,17.50
2006,09,26,11,25,17.60
2006,09,26,11,26,17.70
2006,09,26,11,27,17.70
2006,09,26,11,28,17.70
2006,09,26,11,29,17.80
2006,09,26,11,30,17.80
2006,09,26,11,31,17.80
2006,09,26,11,32,17.90
2006,09,26,11,33,17.90
2006,09,26,11,34,17.90
2006,09,26,11,35,17.90
2006,09,26,11,36,17.90
2006,09,26,11,37,17.90
2006,09,26,11,38,17.90
2006,09,26,11,39,17.90
2006,09,26,11,40,17.90
2006,09,26,11,41,17.90
2006,09,26,11,42,18.10
2006,09,26,11,43,18.10
2006,09,26,11,44,18.10
2006,09,26,11,45,18.10
2006,09,26,11,46,18.00
2006,09,26,11,47,17.90
2006,09,26,11,48,17.90
2006,09,26,11,49,17.90
2006,09,26,11,50,18.00
2006,09,26,11,51,18.10
2006,09,26,11,52,18.10
2006,09,26,11,53,18.20
2006,09,26,11,54,18.20
2006,09,26,11,55,18.20
2006,09,26,11,56,18.20
2006,09,26,11,57,18.20
2006,09,26,11,58,18.20
2006,09,26,11,59,18.20
2006,09,26,12,00,18.20
2006,09,26,12,01,18.30
2006,09,26,12,02,18.30
2006,09,26,12,03,18.40
2006,09,26,12,04,18.40
2006,09,26,12,05,18.50
2006,09,26,12,06,18.50
2006,09,26,12,07,18.40
2006,09,26,12,08,18.30
2006,09,26,12,09,18.00
2006,09,26,12,10,17.70
2006,09,26,12,11,17.50
2006,09,26,12,12,17.30
2006,09,26,12,13,17.20
2006,09,26,12,14,17.10
2006,09,26,12,15,17.10
2006,09,26,12,16,17.10
2006,09,26,12,17,17.10
2006,09,26,12,18,17.10
2006,09,26,12,19,17.10
2006,09,26,12,20,17.10
2006,09,26,12,21,17.10
2006,09,26,12,22,17.20
2006,09,26,12,23,17.20
2006,09,26,12,24,17.30
2006,09,26,12,25,17.30
2006,09,26,12,26,17.40
2006,09,26,12,27,17.40
2006,09,26,12,28,17.50
2006,09,26,12,29,17.60
2006,09,26,12,30,17.70
2006,09,26,12,31,17.70
2006,09,26,12,32,17.80
2006,09,26,12,33,17.90
2006,09,26,12,34,17.90
2006,09,26,12,35,17.90
2006,09,26,12,36,17.90
2006,09,26,12,37,18.00
2006,09,26,12,38,18.10
2006,09,26,12,39,18.20
2006,09,26,12,40,18.20
2006,09,26,12,41,18.20
2006,09,26,12,42,18.20
2006,09,26,12,43,18.30
2006,09,26,12,44,18.30
2006,09,26,12,45,18.20
2006,09,26,12,46,18.20
2006,09,26,12,47,18.20
2006,09,26,12,48,18.20
2006,09,26,12,49,18.30
2006,09,26,12,50,18.40
2006,09,26,12,51,18.40
2006,09,26,12,52,18.50
2006,09,26,12,53,18.50
2006,09,26,12,54,18.60
2006,09,26,12,55,18.60
2006,09,26,12,56,18.60
2006,09,26,12,57,18.60
2006,09,26,12,58,18.70
2006,09,26,12,59,18.60
2006,09,26,13,00,18.60
2006,09,26,13,01,18.50
2006,09,26,13,02,18.30
2006,09,26,13,03,18.20
2006,09,26,13,04,18.20
2006,09,26,13,05,18.20
2006,09,26,13,06,18.10
2006,09,26,13,07,18.10
2006,09,26,13,08,18.10
2006,09,26,13,09,18.10
2006,09,26,13,10,18.10
2006,09,26,13,11,18.10
2006,09,26,13,12,18.10
2006,09,26,13,13,18.10
2006,09,26,13,14,18.20
2006,09,26,13,15,18.20
2006,09,26,13,16,18.20
2006,09,26,13,17,18.20
2006,09,26,13,18,18.20
2006,09,26,13,19,18.20
2006,09,26,13,20,18.20
2006,09,26,13,21,18.20
2006,09,26,13,22,18.10
2006,09,26,13,23,18.10
2006,09,26,13,24,18.00
2006,09,26,13,25,17.90
2006,09,26,13,26,17.90
2006,09,26,13,27,17.90
2006,09,26,13,28,17.80
2006,09,26,13,29,17.90
2006,09,26,13,30,17.90
2006,09,26,13,31,18.00
2006,09,26,13,32,18.10
2006,09,26,13,33,18.20
2006,09,26,13,34,18.20
2006,09,26,13,35,18.20
2006,09,26,13,36,18.30
2006,09,26,13,37,18.50
2006,09,26,13,38,18.50
2006,09,26,13,39,18.60
2006,09,26,13,40,18.70
2006,09,26,13,41,18.80
2006,09,26,13,42,18.90
2006,09,26,13,43,19.10
2006,09,26,13,44,19.10
2006,09,26,13,45,19.30
2006,09,26,13,46,19.30
2006,09,26,13,47,19.30
2006,09,26,13,48,19.30
2006,09,26,13,49,19.30
2006,09,26,13,50,19.30
2006,09,26,13,51,19.30
2006,09,26,13,52,19.40
2006,09,26,13,53,19.40
2006,09,26,13,54,19.40
2006,09,26,13,55,19.50
2006,09,26,13,56,19.40
2006,09,26,13,57,19.40
2006,09,26,13,58,19.30
2006,09,26,13,59,19.30
2006,09,26,14,00,19.30
2006,09,26,14,01,19.30
2006,09,26,14,02,19.30
2006,09,26,14,03,19.40
2006,09,26,14,04,19.40
2006,09,26,14,05,19.50
2006,09,26,14,06,19.50
2006,09,26,14,07,19.50
2006,09,26,14,08,19.50
2006,09,26,14,09,19.50
2006,09,26,14,10,19.50
2006,09,26,14,11,19.50
2006,09,26,14,12,19.50
2006,09,26,14,13,19.40
2006,09,26,14,14,19.30
2006,09,26,14,15,19.30
2006,09,26,14,16,19.30
2006,09,26,14,17,19.30
2006,09,26,14,18,19.30
2006,09,26,14,19,19.40
2006,09,26,14,20,19.50
2006,09,26,14,21,19.60
2006,09,26,14,22,19.60
2006,09,26,14,23,19.70
2006,09,26,14,24,19.90
2006,09,26,14,25,19.90
2006,09,26,14,26,19.90
2006,09,26,14,27,20.10
2006,09,26,14,28,20.00
2006,09,26,14,29,19.90
2006,09,26,14,30,19.90
2006,09,26,14,31,19.90
2006,09,26,14,32,19.90
2006,09,26,14,33,20.00
2006,09,26,14,34,20.10
2006,09,26,14,35,20.20
2006,09,26,14,36,20.20
2006,09,26,14,37,20.20
2006,09,26,14,38,20.20
2006,09,26,14,39,20.30
2006,09,26,14,40,20.40
2006,09,26,14,41,20.40
2006,09,26,14,42,20.40
2006,09,26,14,43,20.50
2006,09,26,14,44,20.50
2006,09,26,14,45,20.60
2006,09,26,14,46,20.70
2006,09,26,14,47,20.80
2006,09,26,14,48,20.90
2006,09,26,14,49,21.00
2006,09,26,14,50,21.10
2006,09,26,14,51,21.10
2006,09,26,14,52,21.20
2006,09,26,14,53,21.30
2006,09,26,14,54,21.30
2006,09,26,14,55,21.30
2006,09,26,14,56,21.20
2006,09,26,14,57,21.20
2006,09,26,14,58,21.20
2006,09,26,14,59,21.30
2006,09,26,15,00,21.30
2006,09,26,15,01,21.30
2006,09,26,15,02,21.30
2006,09,26,15,03,21.30
2006,09,26,15,04,21.30
2006,09,26,15,05,21.40
2006,09,26,15,06,21.50
2006,09,26,15,07,21.60
2006,09,26,15,08,21.60
2006,09,26,15,09,21.60
2006,09,26,15,10,21.70
2006,09,26,15,11,21.70
2006,09,26,15,12,21.70
2006,09,26,15,13,21.70
2006,09,26,15,14,21.70
2006,09,26,15,15,21.70
2006,09,26,15,16,21.60
2006,09,26,15,17,21.60
2006,09,26,15,18,21.50
2006,09,26,15,19,21.40
2006,09,26,15,20,21.40
2006,09,26,15,21,21.30
2006,09,26,15,22,21.30
2006,09,26,15,23,21.30
2006,09,26,15,24,21.30
2006,09,26,15,25,21.30
2006,09,26,15,26,21.40
2006,09,26,15,27,21.60
2006,09,26,15,28,21.60
2006,09,26,15,29,21.70
2006,09,26,15,30,21.90
2006,09,26,15,31,21.90
2006,09,26,15,32,22.00
2006,09,26,15,33,22.10
2006,09,26,15,34,22.20
2006,09,26,15,35,22.20
2006,09,26,15,36,22.20
2006,09,26,15,37,22.20
2006,09,26,15,38,22.20
2006,09,26,15,39,22.20
2006,09,26,15,40,22.10
2006,09,26,15,41,22.00
2006,09,26,15,42,22.00
2006,09,26,15,43,22.00
2006,09,26,15,44,21.90
2006,09,26,15,45,21.90
2006,09,26,15,46,21.80
2006,09,26,15,47,21.80
2006,09,26,15,48,21.80
2006,09,26,15,49,21.80
2006,09,26,15,50,21.80
2006,09,26,15,51,21.80
2006,09,26,15,52,21.80
2006,09,26,15,53,21.90
2006,09,26,15,54,21.90
2006,09,26,15,55,21.90
2006,09,26,15,56,21.90
2006,09,26,15,57,21.90
2006,09,26,15,58,21.90
2006,09,26,15,59,21.80
2006,09,26,16,00,21.80
2006,09,26,16,01,21.80
2006,09,26,16,02,21.80
2006,09,26,16,03,21.80
2006,09,26,16,04,21.90
2006,09,26,16,05,21.90
2006,09,26,16,06,21.90
2006,09,26,16,07,21.90
2006,09,26,16,08,22.00
2006,09,26,16,09,22.00
2006,09,26,16,10,21.90
2006,09,26,16,11,21.80
2006,09,26,16,12,21.70
2006,09,26,16,13,21.70
2006,09,26,16,14,21.70
2006,09,26,16,15,21.70
2006,09,26,16,16,21.70
2006,09,26,16,17,21.70
2006,09,26,16,18,21.70
2006,09,26,16,19,21.80
2006,09,26,16,20,21.80
2006,09,26,16,21,21.80
2006,09,26,16,22,21.80
2006,09,26,16,23,21.80
2006,09,26,16,24,21.80
2006,09,26,16,25,21.80
2006,09,26,16,26,21.70
2006,09,26,16,27,21.70
2006,09,26,16,28,21.80
2006,09,26,16,29,21.80
2006,09,26,16,30,21.90
2006,09,26,16,31,21.90
2006,09,26,16,32,21.90
2006,09,26,16,33,21.90
2006,09,26,16,34,21.90
2006,09,26,16,35,21.90
2006,09,26,16,36,21.90
2006,09,26,16,37,21.90
2006,09,26,16,38,21.90
2006,09,26,16,39,22.00
2006,09,26,16,40,22.10
2006,09,26,16,41,22.00
2006,09,26,16,42,22.00
2006,09,26,16,43,21.90
2006,09,26,16,44,21.80
2006,09,26,16,45,21.70
2006,09,26,16,46,21.70
2006,09,26,16,47,21.60
2006,09,26,16,48,21.60
2006,09,26,16,49,21.50
2006,09,26,16,50,21.40
2006,09,26,16,51,21.40
2006,09,26,16,52,21.40
2006,09,26,16,53,21.40
2006,09,26,16,54,21.30
2006,09,26,16,55,21.30
2006,09,26,16,56,21.30
2006,09,26,16,57,21.30
2006,09,26,16,58,21.30
2006,09,26,16,59,21.30
2006,09,26,17,00,21.30
2006,09,26,17,01,21.30
2006,09,26,17,02,21.30
2006,09,26,17,03,21.30
2006,09,26,17,04,21.30
2006,09,26,17,05,21.30
2006,09,26,17,06,21.30
2006,09,26,17,07,21.30
2006,09,26,17,08,21.30
2006,09,26,17,09,21.30
2006,09,26,17,10,21.30
2006,09,26,17,11,21.30
2006,09,26,17,12,21.30
2006,09,26,17,13,21.30
2006,09,26,17,14,21.20
2006,09,26,17,15,21.10
2006,09,26,17,16,21.10
2006,09,26,17,17,21.10
2006,09,26,17,18,21.10
2006,09,26,17,19,21.10